www.pogodaiklimat.ru

Погода и климат >> Архив погоды >> Норвегия >> Сёркаппёйа


ПОГОДА на Сёркаппёйа

  • Прогноз погоды на Сёркаппёйа
  • Монитор погоды на Сёркаппёйа

АРХИВ ПОГОДЫ на Сёркаппёйа

Время (UTC), дата Ветер
(напр.,м/с)
 
Видим.   Явления Облачность Т
(С)
Тd
(С)
f
(%)
Тe
(С)
Тes
(С)
Комфортность P
(гПа)
Po
(гПа)
Тmin
(С)
Tmax
(С)
R
(мм)
R24
(мм)
S
(см)
10 12.06 З 5
{5}
н/о н/о +2.1 0.0 86 -3 -3 1028.0 1026.9
11 12.06 СЗ 5
{6}
н/о н/о +2.0 -0.1 86 -4 -4 1028.2 1027.1
12 12.06 З 5
{6}
н/о н/о +2.2 0.0 85 -3 -3 1028.5 1027.5
13 12.06 З 5
{6}
н/о н/о +2.4 +0.2 85 -3 -3 1028.6 1027.6
15 12.06 СЗ 5
{6}
н/о н/о +2.3 +0.1 85 -3 -3 1028.7 1027.6
16 12.06 СЗ 5
{6}
н/о н/о +2.4 +0.3 86 -3 -3 1028.7 1027.6
17 12.06 З 5
{6}
н/о н/о +1.8 -0.4 85 -4 -4 1028.6 1027.5
18 12.06 З 7 н/о н/о +1.6 -0.5 86 -5 -5 1028.8 1027.7
19 12.06 З 8
{10}
н/о н/о +1.1 -0.7 88 -6 -6 1028.7 1027.7
06 13.06 З 9 н/о н/о +1.8 +0.2 89 -6 -6 1026.3 1025.2
07 13.06 З 12
{14}
н/о н/о +1.9 +0.4 90 -6 -6 1025.6 1024.5
08 13.06 З 8
{13}
н/о н/о +1.9 +0.6 91 -5 -5 1025.4 1024.3
09 13.06 З 9
{11}
н/о н/о +2.0 +0.5 90 -5 -5 1024.8 1023.8
10 13.06 З 8
{11}
н/о н/о +2.0 +0.7 91 -5 -5 1024.6 1023.6
11 13.06 З 9
{10}
н/о н/о +2.0 +0.8 92 -5 -5 1024.3 1023.2
13 13.06 З 11
{12}
н/о н/о +2.7 +0.8 87 -5 -5 1022.4 1021.4
14 13.06 З 9
{11}
н/о н/о +2.8 +1.0 88 -4 -4 1022.3 1021.2
15 13.06 З 10
{11}
н/о н/о +2.9 +1.1 88 -4 -4 1021.4 1020.3
17 13.06 З 7
{12}
н/о н/о +2.6 +1.1 90 -4 -4 1021.1 1020.0
03 14.06 СЗ 10
{12}
н/о н/о +1.9 +0.9 93 -6 -6 1017.8 1016.8
04 14.06 СЗ 13
{16}
н/о н/о +1.6 +0.9 95 -7 -7 1017.5 1016.4
05 14.06 СЗ 13
{15}
н/о н/о +1.3 +0.7 96 -8 -8 1017.1 1016.0
06 14.06 З 14 н/о н/о +1.5 +1.1 97 -8 -8 1017.1 1016.0
08 14.06 СЗ 11
{14}
н/о н/о +2.0 +1.6 97 -6 -6 1017.7 1016.7
09 14.06 СЗ 12
{15}
н/о н/о +2.0 +1.3 95 -6 -6 1017.5 1016.4
10 14.06 СЗ 10
{14}
н/о н/о +2.3 +1.6 95 -5 -5 1018.6 1017.5
11 14.06 СЗ 9
{11}
н/о н/о +3.1 +1.9 92 -4 -4 1018.9 1017.9
12 14.06 СЗ 6 н/о н/о +3.1 +1.9 92 -3 -3 1019.6 1018.5
13 14.06 СЗ 5
{8}
н/о н/о +3.0 +2.1 94 -2 -2 1019.7 1018.6
14 14.06 З 6
{7}
н/о н/о +2.1 +1.2 94 -4 -4 1019.5 1018.4
15 14.06 З 7
{8}
н/о н/о +1.7 +1.0 95 -5 -5 1019.5 1018.4
16 14.06 З 6
{7}
н/о н/о +1.3 +0.7 96 -5 -5 1019.3 1018.2
18 14.06 З 6 н/о н/о +1.3 +0.9 97 -5 -5 1018.7 1017.6
19 14.06 З 7
{9}
н/о н/о +1.6 +1.2 97 -5 -5 1018.4 1017.3
08 15.06 СЗ 9
{11}
н/о н/о +2.2 +1.9 98 -5 -5 1009.3 1008.3
09 15.06 СЗ 10
{12}
н/о н/о +2.5 +2.2 98 -5 -5 1009.6 1008.5
10 15.06 СЗ 10
{11}
н/о н/о +2.3 +1.9 97 -5 -5 1010.0 1008.9
11 15.06 СЗ 9
{12}
н/о н/о +3.1 +2.7 97 -4 -4 1010.1 1009.0
12 15.06 СЗ 9 н/о н/о +4.0 +3.1 94 -3 -3 1010.1 1009.1
13 15.06 СЗ 7
{13}
н/о н/о +3.8 +2.3 90 -2 -2 1010.3 1009.3
14 15.06 СЗ 13
{14}
н/о н/о +3.6 +2.3 91 -4 -4 1009.8 1008.8
15 15.06 СЗ 11
{16}
н/о н/о +4.8 +2.5 85 -2 -2 1010.4 1009.4
16 15.06 СЗ 12
{14}
н/о н/о +4.4 +2.4 87 -3 -3 1010.2 1009.1
17 15.06 СЗ 11
{14}
н/о н/о +4.0 +2.2 88 -3 -3 1010.5 1009.4
19 15.06 СЗ 12
{16}
н/о н/о +3.0 +1.5 90 -5 -5 1010.5 1009.5
20 15.06 СЗ 11
{15}
н/о н/о +3.1 +1.5 89 -4 -4 1010.8 1009.7
21 15.06 СЗ 10
{14}
н/о н/о +2.9 +1.3 89 -4 -4 1011.3 1010.2
02 16.06 СЗ 14
{18}
н/о н/о +2.4 +0.8 89 -6 -6 1010.9 1009.8
04 16.06 СЗ 17
{20}
н/о н/о +2.4 +0.9 90 -7 -7 1009.8 1008.7
05 16.06 СЗ 16
{19}
н/о н/о +2.8 +1.2 89 -6 -6 1010.1 1009.0
06 16.06 СЗ 17 н/о н/о +3.1 +1.0 86 -6 -6 1009.7 1008.6
07 16.06 З 17
{20}
н/о н/о +3.0 +0.7 85 -6 -6 1010.1 1009.0
08 16.06 СЗ 14
{18}
н/о н/о +3.0 +0.9 86 -5 -5 1010.6 1009.5
10 16.06 СЗ 15
{20}
н/о н/о +3.0 +0.6 84 -5 -5 1010.0 1009.0
11 16.06 СЗ 16
{19}
н/о н/о +3.1 +0.7 84 -5 -5 1010.1 1009.1
12 16.06 СЗ 14 н/о н/о +3.1 +0.5 83 -5 -5 1010.4 1009.4
13 16.06 СЗ 15
{19}
н/о н/о +3.0 +0.6 84 -5 -5 1010.2 1009.2
14 16.06 СЗ 16
{18}
н/о н/о +2.9 +0.3 83 -6 -6 1010.3 1009.2
15 16.06 СЗ 16
{19}
н/о н/о +2.8 +0.2 83 -6 -6 1010.0 1008.9
17 16.06 СЗ 16
{21}
н/о н/о +2.4 +0.2 85 -6 -6 1009.7 1008.6
18 16.06 СЗ 16 н/о н/о +2.3 +0.2 86 -7 -7 1009.0 1007.9
19 16.06 СЗ 17
{19}
н/о н/о +2.2 +0.1 86 -7 -7 1008.8 1007.8
20 16.06 СЗ 17
{21}
н/о н/о +2.2 +0.3 87 -7 -7 1008.7 1007.7
03 17.06 СЗ 12
{15}
н/о н/о +1.9 -0.7 83 -6 -6 1008.1 1007.0
04 17.06 СЗ 11
{15}
н/о н/о +2.3 -0.1 84 -5 -5 1008.2 1007.1
05 17.06 СЗ 9
{13}
н/о н/о +2.7 -0.4 80 -4 -4 1008.2 1007.2
06 17.06 СЗ 8 н/о н/о +3.0 +0.1 81 -3 -3 1008.2 1007.2
07 17.06 СЗ 8
{9}
н/о н/о +3.3 +0.2 80 -3 -3 1008.5 1007.4
08 17.06 СЗ 7
{9}
н/о н/о +3.2 +0.1 80 -3 -3 1008.6 1007.5
09 17.06 СЗ 7
{8}
н/о н/о +3.5 0.0 78 -2 -2 1008.8 1007.8
10 17.06 СЗ 6
{7}
н/о н/о +3.3 +0.2 80 -2 -2 1009.1 1008.0
11 17.06 СЗ 5
{6}
н/о н/о +4.1 +1.0 80 -1 -1 1009.3 1008.3
12 17.06 С 2
{9}
н/о н/о +4.5 -0.5 70 +2 +2 1009.7 1008.6
13 17.06 З 2
{3}
н/о н/о +4.5 +0.5 75 +2 +2 1009.8 1008.7
14 17.06 З 3
{4}
н/о н/о +4.4 +1.1 79 +1 +1 1009.8 1008.8
18 17.06 З 2 н/о н/о +3.4 +1.5 87 0 0 1010.1 1009.0
20 17.06 З 1
{2}
н/о н/о +3.1 +1.5 89 +2 +2 1010.0 1008.9
21 17.06 ЮЗ 2
{3}
н/о н/о +3.0 +1.5 90 -0 -0 1009.9 1008.9
02 18.06 СЗ 3
{4}
н/о н/о +3.2 +2.0 92 -1 -1 1009.5 1008.5
03 18.06 СЗ 4
{4}
н/о н/о +3.8 -0.2 75 -1 -1 1009.4 1008.3
04 18.06 СЗ 3
{4}
н/о н/о +4.2 +2.1 86 +1 +1 1009.3 1008.3
06 18.06 СЗ 4 н/о н/о +4.1 +2.0 86 -0 -0 1009.2 1008.1
07 18.06 СЗ 7
{8}
н/о н/о +3.7 +2.2 90 -2 -2 1008.6 1007.6
08 18.06 СЗ 7
{9}
н/о н/о +4.2 +2.1 86 -2 -2 1008.7 1007.6
09 18.06 СЗ 7
{8}
н/о н/о +4.3 +2.2 86 -2 -2 1008.6 1007.6
10 18.06 СЗ 6
{9}
н/о н/о +4.3 +2.2 86 -1 -1 1008.8 1007.8
11 18.06 СЗ 7
{8}
н/о н/о +4.3 +1.9 84 -1 -1 1008.8 1007.8
12 18.06 СЗ 6
{9}
н/о н/о +4.5 +2.5 87 -1 -1 1008.9 1007.8
13 18.06 З 7
{8}
н/о н/о +4.4 +2.4 87 -1 -1 1008.8 1007.8
15 18.06 СЗ 6
{8}
н/о н/о +5.4 +2.2 80 +1 +1 1008.7 1007.6
16 18.06 СЗ 6
{8}
н/о н/о +4.8 +2.0 82 -0 -0 1008.6 1007.6
17 18.06 СЗ 6
{7}
н/о н/о +4.4 +1.8 83 -1 -1 1008.6 1007.5
18 18.06 СЗ 4 н/о н/о +4.8 +2.2 83 +1 +1 1008.6 1007.5
19 18.06 С 2
{5}
н/о н/о +5.8 +2.1 77 +3 +3 1008.6 1007.5
20 18.06 СВ 2
{3}
н/о н/о +5.8 0.0 66 +4 +4 1008.9 1007.8
21 18.06 СВ 7
{8}
н/о н/о +4.1 +1.7 84 -2 -2 1009.0 1007.9
05 19.06 ЮЗ 4
{5}
н/о н/о +3.1 +2.2 94 -2 -2 1008.9 1007.8
06 19.06 З 6 н/о н/о +3.3 +1.8 90 -2 -2 1008.4 1007.3
07 19.06 СЗ 8
{9}
н/о н/о +3.8 +2.2 89 -3 -3 1008.1 1007.0
08 19.06 СЗ 7
{8}
н/о н/о +3.9 +2.1 88 -2 -2 1008.1 1007.1

 

Местоположение метеостанции Сёркаппёйа (Норвегия): широта 76.48 долгота 16.55 высота над уровнем моря 10 м.

В архиве по умолчанию представлена погода на Сёркаппёйа за последнюю неделю. Архивные данные за месяц целиком и за предыдущие месяцы, начиная с января 2011 года, Вы можете получить, выбрав интересующий диапазон дат из раскрывающегося списка и нажав кнопку "Ввод!".


*Определитесь, кто Вы:
робот инопланетянин человек

Внимание! Время в таблицах - всемирное. Для получения местного времени необходимо прибавить поправку, которая равна 1 ч.

Смотрите также архив погоды в соседних городах и на ближайших метеорологических станциях:

Погода на Хорнсунне (Норвегия) (63 км)
Погода на Акселойа (Норвегия) (141 км)
Погода в Баренцбурге (Шпицберген, Россия) (186 км)
Погода в Свальбард аэропорту (Норвегия) (199 км)
Погода в Хопене (Норвегия) (220 км)
Погода на Острове Медвежий (Норвегия) (228 км)
Погода в Пирамиде (Норвегия) (243 км)
Погода на Эдже (Норвегия) (249 км)
Погода в Ню-Олесунн (Норвегия) (292 км)
Погода на Верлегенхукен (Норвегия) (397 км)

Пояснения к столбцам:

Ветер - указаны скорость ветра в м/с - средняя за 10 мин, порывы в срок и между сроками (в фигурных скобках) и направление, откуда дует ветер: С - северный, СВ - северо-восточный, В - восточный, ЮВ - юго-восточный, Ю - южный, ЮЗ - юго-западный, З - западный, СЗ - северо-западный.
Видимость - горизонтальная дальность видимости в метрах или километрах. При видимости от 1 до 10 км при отсутствии осадков обычно наблюдается дымка, при ухудшении видимости до 1 км и менее - туман. В сухую погоду видимость может ухудшаться дымом, пылью или мглою.
Явления - указаны атмосферные явления, наблюдавшиеся в срок или в последний час перед сроком; фигурными скобками обозначены явления, наблюдавшиеся между сроками (за 1-3 часа до срока); квадратными скобками обозначены град или гололедные отложения с указанием их диаметра в мм.
Облачность - указаны через наклонную черту общая и нижняя облачность в баллах и высота нижней границы облаков в метрах; квадратными скобками обозначены формы облаков: Ci - перистые, Cs - перисто-слоистые, Cc - перисто-кучевые, Ac - высококучевые, As - высокослоистые, Sc - слоисто-кучевые, Ns - слоисто-дождевые, Cu - кучевые, Cb - кучево-дождевые. Подробнее классификацию облаков см. в Атласе облаков (PDF).
T - Температура воздуха - температура, измеренная на высоте 2 м над землей.
Td - Температура точки росы - температура, при понижении до которой содержащийся в воздухе водяной пар достигнет насыщения.
f - Относительная влажность воздуха - влажноcть воздуха, измеренная на высоте 2 м над землей.
Te - Эффективная температура - температура, которую ощущает одетый по сезону человек в тени. Характеристика душности погоды. При расчете учитывается влияние влажности воздуха и скорости ветра на теплоощущения человека.
Tes - Эффективная температура на солнце - температура, которую ощущает человек, с поправкой на солнечный нагрев. Характеристика знойности погоды. Зависит от высоты солнца над горизонтом, облачности и скорости ветра. Ночью, в пасмурную погоду, а также при ветре 12 м/с и более поправка равна нулю.
P - Атмосферное давление - приведенное к уровню моря атмосферное давление.
Po - Атмосферное давление - измеренное на уровне метеостанции атмосферное давление.
Tmin - Минимальная температура - минимум температуры воздуха на высоте 2 м над землей.
Tmax - Максимальная температура - максимум температуры воздуха на высоте 2 м над землей.
R - Количество осадков - Количество выпавших осадков за период времени, мм. При наведении курсора мыши на число - период времени, за который выпало указанное количество осадков.
R24 - Количество осадков - Количество выпавших осадков за 24 часа, мм.
S - Снежный покров - Высота снежного покрова, см. При наведении курсора мыши на число - состояние снежного покрова и степень покрытия местности в баллах.